sat.trackr.live / text

‹ back to catalog

ION SCV-016

NORAD 62628 · 2025-009V

PAYLOAD ACTIVE UNKNOWN

§ Identity

Operator
Country
IT
Launch date
2025-01-14
Launch site
AFWTR
Launch vehicle
Mass (kg)
RCS (m²)

External: N2YO · Heavens-Above · Gunter

§ Orbital elements

Epoch: 2026-05-25T03:05:10.925952Z

Period
99.32 min
Inclination
97.4310°
Eccentricity
0.0593196
Mean motion
14.49814158 rev/d
Perigee alt
304.8 km
Apogee alt
1,147.7 km
Semi-major
7,104.4 km
B*
5.8307e-4
RAAN
185.7715°
Arg perigee
178.6426°
Mean anomaly
181.6564°
Rev number
7,220

§ Raw data

ION SCV-0161 62628U 25009V   26145.12859868  .00027357  00000+0  58307-3 0  99942 62628  97.4310 185.7715 0593196 178.6426 181.6564 14.49814158 72208

JSON: /api/v1/satellites/62628 · /tle

For live sub-satellite position, see the globe view (requires WebGL).

§ Visibility from observer

Set your observer location to see the next 7 days of passes ≥ 10°. The values pass through the URL so the page stays shareable.

No JS? Fill the form by hand. The geolocation button needs JavaScript.

§ Radio — SatNOGS DB

ModeDescriptionDownlinkUplink
FSK AX.100 Mode 5 Mode U - FSK1k2 AX.100 401.415 MHz

1 transmitter · refreshed weekly from db.satnogs.org